| time (UTC) | temp F | wind direction | speed MPH | gust MPH | rain 1hr in | rain 24hr in | rain mn in | humidity % | barometer mb |
| 20260507050054 | 56 | 93 | 1.0 | 5.0 | 0.03 | 0.27 | 0.03 | 56 | 1008.8 |
| 20260507044553 | 57 | 69 | 3.0 | 7.0 | 0.03 | 0.26 | 0.02 | 58 | 1009.1 |
| 20260507043039 | 58 | 19 | 2.0 | 9.0 | 0.02 | 0.25 | 0.01 | 57 | 1008.8 |
| 20260507041534 | 59 | 72 | 0.0 | 5.0 | 0.02 | 0.25 | 0.01 | 58 | 1009.7 |
| 20260507040036 | 60 | 8 | 1.0 | 7.0 | 0.01 | 0.24 | 0.00 | 59 | 1009.5 |
| 20260507034527 | 61 | 298 | 2.0 | 9.0 | 0.00 | 0.23 | 0.23 | 57 | 1008.6 |
| 20260507033024 | 62 | 21 | 3.0 | 6.0 | 0.00 | 0.23 | 0.23 | 55 | 1008.7 |
| 20260507031523 | 62 | 15 | 5.0 | 14.0 | 0.00 | 0.23 | 0.23 | 54 | 1008.6 |
| 20260507030023 | 63 | 36 | 2.0 | 11.0 | 0.00 | 0.23 | 0.23 | 53 | 1008.9 |
| 20260507024518 | 63 | 51 | 4.0 | 12.0 | 0.00 | 0.23 | 0.23 | 53 | 1008.1 |
| 20260507023016 | 64 | 14 | 1.0 | 12.0 | 0.00 | 0.23 | 0.23 | 53 | 1008.2 |
| 20260507021513 | 64 | 46 | 3.0 | 10.0 | 0.00 | 0.23 | 0.23 | 54 | 1008.1 |
| 20260507020013 | 64 | 31 | 3.0 | 9.0 | 0.00 | 0.23 | 0.23 | 54 | 1007.6 |
| 20260507014509 | 65 | 46 | 0.0 | 6.0 | 0.00 | 0.23 | 0.23 | 54 | 1007.4 |
| 20260507013007 | 65 | 49 | 2.0 | 8.0 | 0.00 | 0.23 | 0.23 | 55 | 1007.6 |
| 20260507011504 | 66 | 359 | 2.0 | 8.0 | 0.00 | 0.23 | 0.23 | 55 | 1007.7 |
| 20260507010001 | 66 | 34 | 2.0 | 7.0 | 0.00 | 0.23 | 0.23 | 57 | 1008.1 |
| 20260507004559 | 67 | 20 | 0.0 | 1.0 | 0.00 | 0.23 | 0.23 | 57 | 1007.6 |
| 20260507003056 | 67 | 342 | 0.0 | 1.0 | 0.00 | 0.23 | 0.23 | 58 | 1007.5 |
| 20260507001602 | 68 | 352 | 0.0 | 1.0 | 0.00 | 0.23 | 0.23 | 58 | 1007.3 |
| 20260507000118 | 68 | 14 | 0.0 | 4.0 | 0.00 | 0.23 | 0.23 | 58 | 1007.2 |
| 20260506234607 | 68 | 338 | 0.0 | 0.0 | 0.00 | 0.23 | 0.23 | 58 | 1006.9 |
| 20260506233050 | 69 | 286 | 0.0 | 1.0 | 0.00 | 0.23 | 0.23 | 56 | 1006.6 |
| 20260506231544 | 69 | 238 | 0.0 | 3.0 | 0.00 | 0.23 | 0.23 | 55 | 1006.5 |
| 20260506230041 | 70 | 236 | 0.0 | 4.0 | 0.00 | 0.23 | 0.23 | 54 | 1006.4 |
| 20260506224538 | 70 | 238 | 1.0 | 8.0 | 0.00 | 0.23 | 0.23 | 54 | 1006.4 |
| 20260506223033 | 70 | 259 | 2.0 | 6.0 | 0.00 | 0.23 | 0.23 | 54 | 1006.3 |
| 20260506221530 | 70 | 266 | 2.0 | 8.0 | 0.00 | 0.23 | 0.23 | 53 | 1006.4 |
| 20260506220025 | 70 | 231 | 1.0 | 8.0 | 0.00 | 0.23 | 0.23 | 53 | 1006.4 |
| 20260506214523 | 70 | 230 | 4.0 | 10.0 | 0.00 | 0.23 | 0.23 | 53 | 1006.5 |
| 20260506213022 | 70 | 214 | 3.0 | 10.0 | 0.00 | 0.23 | 0.23 | 53 | 1006.5 |
| 20260506211536 | 70 | 252 | 4.0 | 13.0 | 0.00 | 0.23 | 0.23 | 53 | 1006.4 |
| 20260506210031 | 70 | 236 | 6.0 | 11.0 | 0.00 | 0.23 | 0.23 | 53 | 1006.4 |
| 20260506204522 | 69 | 261 | 4.0 | 10.0 | 0.00 | 0.23 | 0.23 | 54 | 1006.3 |
| 20260506203016 | 70 | 222 | 5.0 | 11.0 | 0.00 | 0.23 | 0.23 | 53 | 1005.9 |
| 20260506201614 | 69 | 321 | 8.0 | 15.0 | 0.00 | 0.23 | 0.23 | 52 | 1006.2 |
| 20260506200012 | 69 | 217 | 3.0 | 9.0 | 0.00 | 0.23 | 0.23 | 53 | 1006.3 |
| 20260506194507 | 68 | 264 | 4.0 | 10.0 | 0.00 | 0.23 | 0.23 | 53 | 1006.4 |
| 20260506193004 | 68 | 263 | 5.0 | 12.0 | 0.00 | 0.23 | 0.23 | 52 | 1006.4 |
| 20260506191501 | 68 | 277 | 3.0 | 9.0 | 0.00 | 0.23 | 0.23 | 52 | 1006.6 |
| 20260506190058 | 67 | 239 | 5.0 | 12.0 | 0.00 | 0.23 | 0.23 | 53 | 1007.0 |
| 20260506184559 | 67 | 214 | 4.0 | 12.0 | 0.00 | 0.23 | 0.23 | 52 | 1007.1 |
| 20260506183101 | 66 | 280 | 4.0 | 12.0 | 0.00 | 0.23 | 0.23 | 53 | 1007.2 |
| 20260506181603 | 66 | 233 | 2.0 | 12.0 | 0.00 | 0.23 | 0.23 | 52 | 1007.1 |
| 20260506180049 | 66 | 207 | 2.0 | 8.0 | 0.00 | 0.23 | 0.23 | 51 | 1007.3 |
| 20260506174545 | 65 | 238 | 3.0 | 8.0 | 0.00 | 0.23 | 0.23 | 51 | 1007.5 |
| 20260506173111 | 64 | 249 | 3.0 | 14.0 | 0.00 | 0.23 | 0.23 | 51 | 1007.5 |
| 20260506171544 | 64 | 165 | 6.0 | 15.0 | 0.00 | 0.23 | 0.23 | 51 | 1007.5 |
| 20260506170052 | 64 | 249 | 10.0 | 16.0 | 0.00 | 0.23 | 0.23 | 51 | 1007.4 |
| 20260506164538 | 64 | 216 | 5.0 | 17.0 | 0.00 | 0.23 | 0.23 | 51 | 1007.5 |
| 20260506163043 | 64 | 190 | 7.0 | 13.0 | 0.00 | 0.23 | 0.23 | 50 | 1007.6 |
| 20260506161532 | 63 | 248 | 8.0 | 13.0 | 0.00 | 0.23 | 0.23 | 47 | 1007.8 |
| 20260506160034 | 62 | 264 | 5.0 | 12.0 | 0.00 | 0.23 | 0.23 | 45 | 1007.7 |
| 20260506154527 | 62 | 153 | 5.0 | 12.0 | 0.00 | 0.23 | 0.23 | 43 | 1007.8 |
| 20260506153026 | 62 | 214 | 8.0 | 16.0 | 0.01 | 0.23 | 0.23 | 40 | 1007.7 |
| 20260506151524 | 61 | 244 | 5.0 | 12.0 | 0.05 | 0.23 | 0.23 | 40 | 1008.1 |
| 20260506150022 | 60 | 204 | 6.0 | 10.0 | 0.06 | 0.23 | 0.23 | 40 | 1007.9 |
| 20260506144518 | 60 | 207 | 6.0 | 12.0 | 0.06 | 0.23 | 0.23 | 40 | 1008.1 |
| 20260506143023 | 60 | 210 | 2.0 | 10.0 | 0.07 | 0.22 | 0.22 | 40 | 1008.3 |
| 20260506141513 | 60 | 221 | 3.0 | 11.0 | 0.06 | 0.18 | 0.18 | 40 | 1008.4 |
| 20260506140017 | 60 | 217 | 2.0 | 7.0 | 0.08 | 0.17 | 0.17 | 41 | 1008.4 |
| 20260506134507 | 60 | 240 | 1.0 | 8.0 | 0.14 | 0.17 | 0.17 | 41 | 1008.5 |
| 20260506133005 | 60 | 248 | 2.0 | 8.0 | 0.14 | 0.15 | 0.15 | 42 | 1008.2 |
| 20260506131600 | 60 | 200 | 3.0 | 9.0 | 0.12 | 0.13 | 0.13 | 45 | 1008.6 |
| 20260506130120 | 60 | 217 | 3.0 | 9.0 | 0.08 | 0.09 | 0.09 | 50 | 1008.8 |
| 20260506124551 | 60 | 164 | 2.0 | 6.0 | 0.03 | 0.03 | 0.03 | 53 | 1008.9 |
| 20260506123048 | 61 | 256 | 0.0 | 4.0 | 0.01 | 0.01 | 0.01 | 56 | 1008.2 |
| 20260506121543 | 61 | 253 | 1.0 | 7.0 | 0.01 | 0.01 | 0.01 | 60 | 1008.2 |
| 20260506120038 | 61 | 210 | 1.0 | 7.0 | 0.01 | 0.01 | 0.01 | 61 | 1008.1 |
| 20260506114539 | 0 | 0.0 | 0.0 | 0.00 | 0.00 | 0.00 | 1008.5 | ||
| 20260506113027 | 0 | 0.0 | 0.0 | 0.00 | 0.00 | 0.00 | 1008.4 | ||
| 20260506111522 | 0 | 0.0 | 0.0 | 0.00 | 0.00 | 0.00 | 1008.1 | ||
| 20260506110017 | 0 | 0.0 | 0.0 | 0.00 | 0.00 | 0.00 | 1007.8 | ||
| 20260506104527 | 0 | 0.0 | 0.0 | 0.00 | 0.00 | 0.00 | 1007.8 | ||
| 20260506103007 | 0 | 0.0 | 0.0 | 0.00 | 0.00 | 0.00 | 1007.4 | ||
| 20260506101601 | 64 | 219 | 2.0 | 8.0 | 0.00 | 0.00 | 0.00 | 56 | 1007.6 |
| 20260506100057 | 65 | 222 | 2.0 | 8.0 | 0.00 | 0.00 | 0.00 | 55 | 1007.5 |
| 20260506094555 | 65 | 209 | 3.0 | 11.0 | 0.00 | 0.00 | 0.00 | 54 | 1007.5 |
| 20260506093051 | 65 | 204 | 2.0 | 10.0 | 0.00 | 0.00 | 0.00 | 54 | 1007.7 |
| 20260506091547 | 66 | 235 | 7.0 | 13.0 | 0.00 | 0.00 | 0.00 | 53 | 1007.6 |
| 20260506090047 | 66 | 249 | 6.0 | 14.0 | 0.00 | 0.00 | 0.00 | 53 | 1007.9 |
| 20260506084539 | 66 | 266 | 3.0 | 11.0 | 0.00 | 0.00 | 0.00 | 52 | 1008.1 |
| 20260506083041 | 66 | 200 | 2.0 | 17.0 | 0.00 | 0.00 | 0.00 | 52 | 1008.1 |
| 20260506081533 | 67 | 243 | 5.0 | 12.0 | 0.00 | 0.00 | 0.00 | 51 | 1008.0 |
| 20260506073020 | 67 | 266 | 2.0 | 12.0 | 0.00 | 0.00 | 0.00 | 49 | 1007.9 |
| 20260506071520 | 67 | 231 | 5.0 | 12.0 | 0.00 | 0.00 | 0.00 | 49 | 1007.9 |
| 20260506061601 | 68 | 150 | 1.0 | 13.0 | 0.00 | 0.00 | 0.00 | 46 | 1008.6 |